Total_Precipitation_Accumulation
0.00 0.00 0.01 0.01 0.02 0.02 0.04 0.09 0.22 0.26 0.19 0.28 0.35 0.54 0.63 0.71 0.85 0.85 0.73 0.75 1.00 1.14 1.31 1.56 2.04 2.73 3.56 4.20 4.26 3.73 3.16 2.78 2.36 1.98 1.43 1.07 0.88 0.78 0.71 0.59 0.52 0.47 0.42 0.44
0.00 0.02 0.02 0.01 0.02 0.03 0.06 0.08 0.19 0.26 0.18 0.21 0.34 0.64 0.89 0.84 0.77 0.73 0.73 0.67 0.81 1.14 1.53 2.03 2.88 3.40 3.41 3.29 2.80 2.31 2.03 1.80 1.45 1.12 0.80 0.63 0.52 0.43 0.38 0.35 0.36 0.34 0.30 0.30
0.01 0.03 0.02 0.02 0.03 0.09 0.10 0.10 0.18 0.25 0.15 0.16 0.35 0.78 1.01 0.97 0.75 0.62 0.60 0.53 0.74 1.15 1.70 2.39 2.85 2.82 2.30 1.79 1.51 1.32 1.23 0.94 0.75 0.65 0.52 0.43 0.34 0.29 0.27 0.26 0.26 0.24 0.21 0.22
0.01 0.02 0.02 0.02 0.04 0.08 0.09 0.06 0.06 0.09 0.15 0.33 0.50 0.99 1.10 0.88 0.79 0.62 0.58 0.55 0.64 0.89 1.18 1.53 1.69 1.47 1.36 1.28 1.18 1.12 1.03 0.72 0.56 0.47 0.39 0.31 0.26 0.24 0.23 0.21 0.21 0.19 0.17 0.18
0.02 0.03 0.02 0.02 0.03 0.04 0.04 0.03 0.04 0.11 0.22 0.41 0.59 0.82 0.90 0.68 0.77 0.57 0.43 0.42 0.44 0.59 0.66 0.69 0.73 0.72 0.72 0.74 0.82 0.88 0.89 0.76 0.58 0.48 0.42 0.34 0.27 0.24 0.21 0.21 0.21 0.21 0.20 0.18
0.03 0.04 0.03 0.02 0.02 0.03 0.03 0.05 0.12 0.23 0.39 0.85 0.80 0.79 0.94 0.81 0.80 0.59 0.40 0.32 0.36 0.48 0.53 0.51 0.46 0.45 0.49 0.53 0.51 0.58 0.73 0.81 0.71 0.61 0.51 0.43 0.33 0.28 0.24 0.22 0.21 0.20 0.18 0.18
0.09 0.07 0.05 0.03 0.03 0.05 0.05 0.07 0.24 0.56 0.92 1.06 0.65 0.72 0.94 0.69 0.59 0.43 0.23 0.17 0.28 0.45 0.54 0.51 0.43 0.35 0.33 0.36 0.35 0.33 0.36 0.47 0.49 0.44 0.43 0.44 0.40 0.32 0.25 0.21 0.17 0.18 0.16 0.16
0.14 0.12 0.06 0.04 0.04 0.06 0.05 0.03 0.10 0.20 0.28 0.43 0.54 0.85 0.96 0.66 0.41 0.19 0.09 0.07 0.20 0.30 0.31 0.30 0.27 0.21 0.15 0.14 0.17 0.18 0.19 0.21 0.25 0.24 0.24 0.26 0.28 0.22 0.18 0.23 0.18 0.18 0.21 0.22
0.05 0.05 0.04 0.04 0.05 0.06 0.05 0.03 0.04 0.07 0.11 0.28 0.58 0.82 0.71 0.53 0.34 0.16 0.08 0.06 0.07 0.09 0.11 0.12 0.14 0.13 0.11 0.10 0.10 0.11 0.13 0.15 0.16 0.17 0.15 0.15 0.19 0.19 0.17 0.18 0.18 0.16 0.22 0.23
0.02 0.02 0.04 0.04 0.05 0.05 0.05 0.04 0.04 0.04 0.10 0.19 0.40 0.72 0.78 0.57 0.37 0.16 0.10 0.08 0.07 0.08 0.08 0.08 0.08 0.08 0.07 0.08 0.09 0.12 0.14 0.13 0.12 0.11 0.09 0.09 0.15 0.18 0.17 0.16 0.18 0.19 0.19 0.19
0.02 0.02 0.05 0.05 0.06 0.08 0.07 0.06 0.05 0.05 0.07 0.12 0.26 0.40 0.34 0.27 0.19 0.12 0.08 0.05 0.05 0.05 0.05 0.05 0.05 0.05 0.05 0.05 0.07 0.09 0.10 0.10 0.09 0.06 0.05 0.06 0.09 0.11 0.15 0.18 0.20 0.21 0.20 0.18
0.02 0.02 0.03 0.06 0.08 0.08 0.08 0.09 0.08 0.07 0.07 0.08 0.13 0.25 0.18 0.15 0.14 0.10 0.06 0.04 0.02 0.02 0.02 0.02 0.03 0.05 0.05 0.05 0.06 0.08 0.09 0.07 0.06 0.05 0.04 0.03 0.03 0.05 0.08 0.12 0.15 0.18 0.17 0.16
0.02 0.02 0.03 0.11 0.17 0.14 0.09 0.07 0.08 0.08 0.08 0.07 0.17 0.30 0.21 0.12 0.10 0.09 0.07 0.05 0.03 0.02 0.01 0.02 0.04 0.08 0.10 0.08 0.07 0.07 0.10 0.09 0.05 0.04 0.03 0.04 0.03 0.04 0.05 0.07 0.10 0.13 0.15 0.17
0.03 0.02 0.02 0.09 0.17 0.18 0.15 0.10 0.10 0.09 0.06 0.05 0.10 0.25 0.20 0.13 0.14 0.11 0.08 0.06 0.04 0.03 0.02 0.02 0.03 0.06 0.06 0.04 0.04 0.06 0.08 0.13 0.11 0.11 0.10 0.10 0.09 0.08 0.07 0.06 0.07 0.09 0.13 0.16
0.03 0.02 0.02 0.02 0.05 0.08 0.10 0.11 0.10 0.07 0.04 0.06 0.08 0.15 0.13 0.14 0.14 0.12 0.10 0.07 0.05 0.05 0.05 0.04 0.05 0.09 0.11 0.10 0.10 0.11 0.13 0.15 0.17 0.20 0.23 0.25 0.24 0.21 0.16 0.14 0.14 0.16 0.20 0.23
0.03 0.03 0.02 0.02 0.04 0.07 0.09 0.11 0.07 0.05 0.03 0.04 0.05 0.07 0.07 0.10 0.12 0.10 0.08 0.08 0.09 0.10 0.08 0.08 0.08 0.10 0.11 0.12 0.13 0.15 0.18 0.19 0.19 0.21 0.23 0.24 0.26 0.24 0.23 0.24 0.26 0.30 0.33 0.39
0.06 0.06 0.04 0.03 0.06 0.07 0.13 0.10 0.07 0.06 0.05 0.04 0.06 0.08 0.09 0.12 0.19 0.18 0.12 0.11 0.10 0.09 0.07 0.07 0.08 0.09 0.09 0.10 0.09 0.11 0.13 0.16 0.19 0.26 0.31 0.33 0.33 0.31 0.33 0.36 0.38 0.40 0.42 0.45
0.16 0.14 0.10 0.08 0.08 0.12 0.13 0.09 0.08 0.07 0.07 0.09 0.11 0.11 0.13 0.15 0.16 0.15 0.12 0.10 0.08 0.08 0.09 0.09 0.09 0.09 0.09 0.10 0.11 0.13 0.15 0.17 0.20 0.24 0.29 0.34 0.39 0.43 0.47 0.54 0.58 0.59 0.60 0.58
0.27 0.26 0.19 0.14 0.12 0.14 0.15 0.14 0.14 0.15 0.14 0.13 0.18 0.22 0.21 0.18 0.14 0.12 0.12 0.11 0.12 0.10 0.08 0.08 0.08 0.09 0.11 0.12 0.14 0.16 0.21 0.27 0.31 0.33 0.38 0.43 0.47 0.51 0.56 0.61 0.66 0.69 0.70 0.64
0.28 0.31 0.27 0.21 0.21 0.21 0.19 0.22 0.18 0.17 0.24 0.22 0.26 0.27 0.26 0.24 0.28 0.26 0.18 0.13 0.10 0.08 0.06 0.05 0.06 0.08 0.11 0.14 0.18 0.21 0.25 0.30 0.36 0.39 0.40 0.43 0.50 0.55 0.55 0.58 0.62 0.61 0.64 0.62
0.27 0.33 0.32 0.29 0.28 0.24 0.22 0.23 0.23 0.35 0.45 0.46 0.49 0.43 0.33 0.31 0.30 0.23 0.15 0.10 0.07 0.07 0.06 0.05 0.05 0.05 0.07 0.10 0.13 0.19 0.26 0.34 0.36 0.36 0.36 0.39 0.46 0.54 0.55 0.58 0.61 0.58 0.57 0.58
0.42 0.47 0.45 0.43 0.51 0.47 0.35 0.36 0.44 0.51 0.47 0.59 0.50 0.38 0.32 0.27 0.19 0.14 0.09 0.07 0.05 0.05 0.04 0.04 0.04 0.05 0.06 0.10 0.15 0.20 0.25 0.26 0.29 0.29 0.28 0.28 0.31 0.33 0.36 0.45 0.49 0.54 0.59 0.60
0.51 0.55 0.58 0.54 0.56 0.49 0.46 0.47 0.47 0.41 0.35 0.37 0.31 0.23 0.19 0.15 0.11 0.07 0.05 0.04 0.04 0.04 0.04 0.04 0.05 0.06 0.08 0.12 0.17 0.22 0.22 0.22 0.24 0.26 0.26 0.27 0.28 0.32 0.37 0.43 0.43 0.44 0.48 0.49
0.54 0.42 0.49 0.63 0.62 0.54 0.44 0.33 0.31 0.30 0.27 0.25 0.21 0.21 0.18 0.12 0.08 0.05 0.03 0.03 0.02 0.02 0.03 0.04 0.05 0.08 0.11 0.13 0.15 0.18 0.20 0.24 0.28 0.30 0.30 0.31 0.32 0.33 0.35 0.43 0.43 0.42 0.42 0.41
0.44 0.36 0.48 0.71 0.76 0.66 0.55 0.42 0.36 0.32 0.29 0.23 0.21 0.20 0.17 0.12 0.08 0.05 0.03 0.02 0.01 0.01 0.02 0.04 0.08 0.12 0.14 0.13 0.14 0.15 0.19 0.27 0.31 0.31 0.31 0.31 0.33 0.34 0.33 0.39 0.42 0.36 0.37 0.34
0.28 0.30 0.44 0.67 0.67 0.72 0.65 0.46 0.39 0.35 0.35 0.28 0.23 0.20 0.15 0.11 0.07 0.04 0.03 0.02 0.02 0.02 0.05 0.09 0.13 0.16 0.16 0.15 0.16 0.17 0.21 0.31 0.37 0.37 0.34 0.33 0.33 0.33 0.34 0.37 0.37 0.30 0.23 0.21